Location: *
(46.3436°N, 5.8442°E)
Time: 02:44:28
(UTC+00:00)

Daily predictions for brighter satellites

Satellite Brightness Start Highest point End
(mag) Time Altitude Azimuth Time Altitude Azimuth Time Altitude Azimuth
Unknown 3.8 00:05:21 63° ENE 00:05:21 63° ENE 00:08:55 10° ENE
Unknown 3.8 00:06:57 66° ENE 00:06:57 66° ENE 00:10:34 10° ENE
NOSS 2-2 (E) 3.4 00:07:36 72° NW 00:07:36 72° NW 00:11:54 10° NE
Unknown 3.7 00:08:32 69° ENE 00:08:32 69° ENE 00:12:14 10° ENE
Cosmos 1666 4.5 00:08:14 23° E 00:08:15 23° E 00:11:19 10° NE
Unknown 3.7 00:10:07 72° ENE 00:10:07 72° ENE 00:13:54 10° ENE
H-2A R/B 4.1 00:08:37 16° ESE 00:11:02 23° ENE 00:14:36 10° NNE
Cosmos 1745 Rocket 4.4 00:07:35 10° NNW 00:13:36 49° W 00:15:12 40° SW
Unknown 3.6 00:16:31 83° NNE 00:16:31 83° NNE 00:20:34 10° ENE
RESURS DK-1 4.3 00:17:15 18° E 00:17:15 18° E 00:19:53 10° ENE
Unknown 3.6 00:18:06 83° N 00:18:06 83° N 00:22:13 10° ENE
CZ-4B R/B 3.7 00:13:33 10° NNE 00:18:24 52° E 00:19:08 47° SE
USA 238 DEB 4.1 00:12:37 10° NW 00:19:25 47° WSW 00:21:02 41° SSW
USA 238 4.1 00:12:42 10° NW 00:19:31 47° WSW 00:21:09 41° SSW
Unknown 3.6 00:19:44 82° NNW 00:19:44 82° NNW 00:23:54 10° ENE
Cosmos 2369 Rocket 2.4 00:15:26 10° NW 00:20:59 53° WSW 00:21:44 49° SW
Unknown 3.6 00:21:19 80° NW 00:21:23 80° NNW 00:25:34 10° ENE
ATLAS 2AS CENTAUR R/B 3.1 00:17:20 33° SW 00:21:25 84° NW 00:29:33 10° NE
Unknown 3.6 00:22:51 77° WNW 00:23:00 79° NNW 00:27:10 10° ENE
SL-16 R/B 3.7 00:19:40 15° SE 00:24:20 38° ENE 00:29:58 10° N
Unknown 3.6 00:24:36 73° WNW 00:24:51 77° NNW 00:29:02 10° ENE
NOSS 2-2 (D) 3.5 00:24:40 59° WNW 00:24:52 61° NW 00:29:07 10° NE
Unknown 4.4 00:25:11 35° NW 00:25:49 38° NNW 00:29:06 10° NE
Unknown 3.6 00:26:07 71° WNW 00:26:23 75° NNW 00:30:33 10° ENE
Cosmos 1782 Rocket 4.0 00:25:59 47° ESE 00:26:29 50° E 00:30:50 10° NNE
Unknown 3.9 00:26:32 54° NW 00:26:56 57° NNW 00:30:44 10° NE
Starlink (trailer) 3.7 00:27:41 68° WNW 00:28:02 74° NNW 00:32:12 10° ENE
CZ-4C R/B 3.6 00:29:28 64° WSW 00:29:38 65° W 00:34:04 10° NNW
Unknown 3.7 00:29:17 65° WNW 00:29:42 72° NNW 00:33:52 10° ENE
Unknown 3.9 00:29:45 52° WNW 00:30:17 58° NNW 00:34:10 10° NE
Unknown 3.7 00:30:51 62° WNW 00:31:21 71° NNW 00:35:30 10° ENE
Cosmos 1777 Rocket 4.1 00:31:10 51° SSE 00:32:09 61° ESE 00:37:20 10° NNE
Unknown 3.7 00:31:56 62° WNW 00:32:24 69° NNW 00:36:31 10° ENE
Meteor 1-5 Rocket 4.4 00:33:18 46° SW 00:35:04 71° WNW 00:41:03 10° N
Meteor 1-11 Rocket 3.7 00:33:53 50° SSW 00:35:23 74° WNW 00:41:10 10° N
Unknown 4.3 00:35:16 38° WNW 00:36:10 47° NNW 00:39:49 10° NE
Unknown 3.9 00:37:13 52° W 00:38:00 65° NNW 00:42:08 10° ENE
Cosmos 2315 Rocket 4.0 00:36:24 44° SSW 00:38:31 73° W 00:44:56 10° N
Cosmos 1603 4.3 00:36:51 33° WSW 00:39:02 49° WNW 00:44:32 10° NNE
Unknown 3.9 00:38:51 50° W 00:39:41 64° NNW 00:43:50 10° ENE
Unknown 4.0 00:40:26 47° W 00:41:22 62° NNW 00:45:30 10° ENE
Cosmos 1500 3.6 00:41:42 53° WNW 00:41:42 53° WNW 00:45:21 10° N
Unknown 4.0 00:42:00 45° W 00:43:01 61° NNW 00:47:08 10° ENE
Lacrosse 4 Rocket 4.4 00:41:54 10° WNW 00:43:32 12° NW 00:45:10 10° NNW
Unknown 4.1 00:43:39 41° W 00:44:48 58° NNW 00:48:55 10° ENE
Meteor 2-8 Rocket 4.4 00:42:52 44° S 00:44:59 80° E 00:51:07 10° N
Unknown 4.1 00:45:14 42° W 00:46:22 59° NNW 00:50:29 10° ENE
PSLV R/B 3.9 00:42:26 10° N 00:46:32 51° WNW 00:46:59 48° W
Unknown 4.1 00:46:48 38° W 00:48:05 56° NNW 00:52:11 10° NE
Unknown 4.1 00:48:22 38° W 00:49:40 57° NNW 00:53:46 10° ENE
Unknown 4.2 00:50:00 37° W 00:51:21 56° NNW 00:55:27 10° NE
Cosmos 1656 Rocket 3.6 00:47:09 10° NNW 00:52:50 71° WSW 00:54:32 45° S
Cosmos 1346 Rocket 3.4 00:54:41 44° ESE 00:55:12 47° E 00:59:02 10° NNE
EXPRESS MD2 4.5 00:56:15 24° NE 00:56:15 24° NE 00:57:45 10° ENE
Unknown 4.3 00:54:48 33° W 00:56:22 53° NNW 01:00:27 10° NE
Unknown 4.3 00:56:20 31° W 00:57:59 52° NNW 01:02:04 10° NE
SeaSat 1 4.3 00:54:30 10° N 00:58:24 24° NW 01:01:26 14° W
Cosmos 1975 Rocket 2.9 00:54:32 10° NNW 00:58:52 76° W 00:59:24 65° SSW
ADEOS II 4.4 00:56:20 10° NE 00:59:12 15° E 01:02:02 10° ESE
Unknown 4.3 00:57:59 30° W 00:59:43 51° NNW 01:03:47 10° NE
Resurs 1-4 Rocket 2.8 00:55:53 10° NNE 01:00:57 45° E 01:03:03 30° SSE
Unknown 4.4 00:59:35 29° W 01:01:23 50° NNW 01:05:26 10° NE
NPP 4.4 00:56:15 10° NNE 01:01:25 45° E 01:03:37 30° SSE
Cosmos 773 Rocket 4.2 00:57:11 10° NNW 01:02:15 50° WSW 01:03:03 46° SW
Cosmos 1536 3.6 01:02:17 38° W 01:02:32 38° WNW 01:06:21 10° N
Unknown 4.4 01:02:45 27° W 01:04:42 48° NNW 01:08:45 10° NE
Cosmos 1943 4.0 01:02:56 28° WSW 01:05:24 44° NW 01:10:50 10° NNE
NOSS 3-2 (C) 4.4 00:58:32 10° NW 01:05:43 46° WSW 01:08:50 33° SSW
Unknown 4.5 01:04:20 25° W 01:06:24 48° NNW 01:10:28 10° NE
Sich 1 Rocket 3.6 01:06:25 55° SW 01:07:19 73° W 01:11:56 10° N
Unknown 4.5 01:05:58 25° W 01:08:03 47° NNW 01:12:05 10° NE
Cosmos 2184 Rocket 3.9 01:03:36 10° N 01:09:55 84° W 01:12:48 35° S
UNK 3.8 01:09:55 36° SSE 01:11:43 73° ENE 01:16:19 10° N
SJ 16-02 3.6 01:12:33 12° SE 01:14:39 17° E 01:17:26 10° ENE
SAR-Lupe-4 3.4 01:16:09 71° WSW 01:16:12 71° WSW 01:19:48 10° NNW
USA 215 4.5 01:11:23 10° E 01:17:28 43° NNE 01:23:33 10° NW
SL-4 R/B 2.1 01:12:47 10° WNW 01:17:29 66° SSW 01:21:02 15° SE
Cosmos 1943 Rocket 3.9 01:17:14 10° WNW 01:20:19 16° W 01:20:19 16° W
ATLAS 5 CENTAUR R/B 4.4 01:20:49 10° W 01:21:58 12° W 01:21:58 12° W
CZ-4B R/B 4.1 01:23:26 10° ESE 01:25:19 15° ENE 01:27:12 10° NNE
NOSS 3-4 (A) 3.9 01:22:55 25° WSW 01:26:24 56° NW 01:32:48 10° NE
NOSS 3-4 (C) 3.9 01:23:02 26° WSW 01:26:30 57° NW 01:32:53 10° NE
Cosmos 1066 Rocket 4.5 01:22:32 10° NNW 01:28:07 52° W 01:30:03 36° SSW
BREEZE-M DEB (TANK) 4.2 01:26:07 10° WNW 01:30:12 30° WSW 01:30:12 30° WSW
Cosmos 1743 2.7 01:34:43 52° SW 01:35:25 66° W 01:39:17 10° N
CENTAUR R/B 3.5 01:28:16 10° NW 01:35:52 45° WSW 01:40:52 23° S
ARIANE 5 R/B 3.8 01:31:59 10° NNE 01:36:38 33° E 01:40:15 15° SSE
Cosmos 2074 Rocket 4.3 01:31:36 10° NNW 01:37:40 51° W 01:40:26 31° SSW
CBERS-1 4.1 01:34:54 10° NNE 01:40:03 72° ESE 01:42:37 30° S
CZ-2D R/B 2.1 01:35:37 10° NNE 01:41:06 87° WNW 01:43:48 32° SSW
Cosmos 923 Rocket 4.0 01:36:16 10° NNW 01:41:33 63° WSW 01:44:11 29° S
Cosmos 1666 3.9 01:43:07 26° W 01:43:43 27° WNW 01:47:04 10° NNW
Cosmos 2084 3.5 01:39:37 10° NW 01:43:51 77° NE 01:47:57 10° SE
ATLAS 3B R/B 3.4 01:38:54 10° NW 01:44:32 30° WSW 01:45:58 27° SW
Okean 2 Rocket 3.4 01:44:08 37° SW 01:45:28 51° WNW 01:49:49 10° N
H-2A R/B 2.6 01:45:43 36° SW 01:46:47 42° W 01:51:05 10° NNW
Cosmos 1536 Rocket 3.5 01:42:38 10° NNW 01:47:08 78° W 01:49:09 32° S
Meteor 2-9 Rocket 4.4 01:44:57 25° S 01:48:12 68° E 01:53:48 10° NNE
Cosmos 1975 3.0 01:48:03 41° SW 01:49:15 62° WNW 01:53:19 10° N
RESURS DK-1 2.9 01:53:09 31° WSW 01:54:41 47° WNW 01:58:45 10° NNE
Nadezhda 1 Rocket 4.2 01:52:01 28° SSW 01:55:29 61° WNW 02:01:49 10° N
Cosmos 405 3.7 01:53:09 10° N 01:56:38 52° ENE 01:59:05 18° SSE
Genesis I 4.0 01:55:09 29° WSW 01:56:51 46° NW 02:00:48 10° NNE
Okean 2 4.2 01:53:34 10° NNW 01:57:20 33° W 01:58:09 31° WSW
Cosmos 1340 3.5 01:57:12 31° WSW 01:58:05 36° WNW 02:01:37 10° N
AQUA 3.8 01:53:22 10° N 01:58:08 71° WNW 02:00:28 30° SSW
MOZ.5/SAFIR/RUBIN 5/SL-8 4.3 01:57:55 31° SW 01:59:27 40° W 02:03:57 10° NNW
Cosmos 1689 Rocket 4.3 01:58:54 10° SE 02:01:23 25° ENE 02:03:53 10° NNE
Landsat 5 3.5 01:59:08 21° SSE 02:02:04 86° WSW 02:06:22 10° NNW
Cosmos 1842 3.2 01:58:56 10° NNW 02:02:47 67° W 02:04:24 32° S
Cosmos 1300 Rocket 3.8 02:01:36 32° SW 02:03:24 54° WNW 02:07:47 10° N
Cosmos 1937 Rocket 3.9 02:01:36 22° S 02:04:55 58° ESE 02:10:06 10° NNE
Cosmos 1680 Rocket 3.7 02:00:11 10° NNW 02:05:19 51° WSW 02:08:25 23° S
Meteor 1-12 Rocket 4.4 02:01:44 21° S 02:05:51 83° E 02:11:55 10° NNE
CZ-4C R/B 3.2 02:06:33 37° SSW 02:07:37 52° W 02:11:11 10° NNW
SL-16 R/B 3.0 02:04:46 25° SSW 02:07:53 41° W 02:13:42 10° NNW
Atlas Centaur 2 4.0 02:08:24 20° SSW 02:10:03 21° S 02:15:04 10° SE
Iridium 51 4.3 02:08:01 26° S 02:10:23 83° W 02:14:24 10° N
Meteor 1-21 4.3 02:06:25 10° NNW 02:12:10 65° W 02:16:30 18° S
Cosmos 2366 rocket 4.4 02:06:59 10° N 02:13:05 63° ENE 02:19:11 10° SSE
ATLAS 2AS CENTAUR R/B 4.4 02:06:27 10° W 02:13:35 33° NNW 02:20:38 10° NE
Cosmos 1898 Rocket 3.5 02:10:31 24° SSW 02:13:46 88° WNW 02:19:07 10° NNE
Cosmos 1025 Rocket 3.3 02:10:50 10° NNW 02:15:05 49° W 02:17:18 25° SSW
SL-08 R/B 3.5 02:17:23 21° S 02:20:26 54° W 02:25:09 10° NNW
Milstar 3 4.1 02:19:34 17° SSW 02:20:48 18° S 02:25:20 10° SE
Cosmos 2151 Rocket 4.5 02:19:47 23° WSW 02:21:52 35° WNW 02:26:04 10° N
IRS-1C 4.2 02:18:41 10° N 02:24:00 71° WNW 02:27:46 20° SSW
Cosmos 2341 Rocket 4.1 02:19:41 10° NNW 02:25:58 61° W 02:31:35 13° S
Cosmos 44 3.2 02:24:38 10° NW 02:29:16 77° NE 02:33:38 10° SE
IRS-1D 3.8 02:24:35 10° N 02:29:23 51° WNW 02:32:38 20° SW
Cosmos 2218 Rocket 4.0 02:25:08 10° N 02:31:22 90° WNW 02:37:39 10° S
CZ-2C R/B 3.5 02:27:54 10° NNE 02:31:33 48° E 02:35:00 11° S
Okean 1 Rocket 3.2 02:29:15 21° SSW 02:32:08 61° WNW 02:36:35 10° N
Cosmos 1441 Rocket 4.2 02:35:24 10° SSE 02:39:06 45° E 02:42:51 10° NNE
ADEOS II 2.1 02:34:16 10° NNE 02:39:32 81° WNW 02:44:05 14° SSW
Aureole 2 Rocket 3.3 02:37:20 10° NW 02:39:55 24° WSW 02:40:23 23° WSW
COSMOS 2406 3.2 02:35:45 18° SW 02:40:01 75° WNW 02:45:44 10° NNE
TSX-5 3.1 02:37:05 10° NNW 02:40:13 71° WSW 02:43:29 10° SSE
Resurs 1-4 Rocket 3.3 02:36:06 10° N 02:40:34 28° WNW 02:44:07 14° WSW
Aureole 3 2.8 02:43:36 16° S 02:45:59 88° W 02:49:42 10° N
Cosmos 1697 Rocket 3.0 02:44:06 10° NNW 02:49:48 72° ENE 02:55:27 10° SSE
Cosmos 1833 Rocket 3.1 02:47:10 10° S 02:52:41 63° ESE 02:58:16 10° NNE
SJ 16-02 1.7 02:49:33 17° SW 02:52:48 52° WNW 02:57:07 10° NNE
Okean 1-7 Rocket 3.6 02:49:03 10° N 02:53:36 80° W 02:58:06 10° S
SL-4 R/B 3.8 02:53:58 10° W 02:55:57 14° WSW 02:55:57 14° WSW
CZ-4B R/B 2.2 02:55:44 17° SSW 02:57:32 28° W 03:00:16 10° NW
Cosmos 1980 Rocket 3.3 02:53:26 10° NNW 02:58:53 50° ENE 03:04:18 10° SE
SL-8 Rocket 4.3 02:52:54 10° NNW 02:58:55 49° W 03:04:57 10° SSW
Cosmos 1656 3.7 02:53:46 10° NNW 02:59:25 62° WSW 03:05:00 10° S
USA 215 3.3 02:53:33 10° SE 03:00:07 89° NE 03:06:42 10° NW
Cosmos 1544 Rocket 4.0 02:56:17 10° S 03:00:32 60° E 03:04:49 10° NNE
SL-08 R/B 4.5 02:57:22 10° NNW 03:03:31 75° W 03:09:42 10° S
CBERS 1 LM4 rocket 4.5 03:02:12 10° NNE 03:06:59 81° ESE 03:11:50 10° SSW
Cosmos 1674 4.0 03:04:51 10° N 03:08:33 44° ENE 03:12:14 10° SSE
Cosmos 1455 Rocket 3.1 03:05:16 10° S 03:09:39 90° NE 03:14:01 10° N
H-2A R/B 3.5 03:05:46 10° NNE 03:10:11 51° E 03:14:34 10° S
BREEZE-M DEB (TANK) 3.8 02:58:37 10° WNW 03:10:15 63° SW 03:13:41 10° SE
Cosmos 2278 3.7 03:05:04 10° NNW 03:10:45 90° WSW 03:16:25 10° SSE
EXPRESS MD2 2.9 03:09:02 10° WNW 03:11:43 90° SSW 03:16:30 10° ESE
Cosmos 1707 3.5 03:09:08 10° NNW 03:12:38 33° W 03:16:06 10° SSW
Nadezhda 3 Rocket 4.3 03:06:49 10° S 03:13:06 72° E 03:19:23 10° NNE
ARIANE 5 R/B 3.4 03:11:05 10° N 03:15:44 35° WNW 03:20:24 10° SW
Meteor 1-28 Rocket 3.2 03:15:26 10° S 03:19:11 64° WSW 03:22:57 10° NNW
CZ-2D R/B 4.3 03:15:24 10° N 03:19:28 40° WNW 03:23:36 10° SW
CZ-2D R/B 4.1 03:17:18 10° NNW 03:20:23 16° NW 03:23:29 10° W
Spot 2 4.4 03:16:10 10° N 03:20:44 69° WNW 03:25:33 10° SSW
Cosmos 1892 Rocket 4.0 03:18:04 10° NNW 03:22:12 43° W 03:26:20 10° SSW
Cosmos 1602 Rocket 4.2 03:22:55 10° N 03:27:20 62° ENE 03:31:46 10° SSE
Cosmos 2298 Rocket 4.3 03:22:13 10° SW 03:27:25 57° WNW 03:32:40 10° NNE
Cosmos 1626 Rocket 3.7 03:27:42 10° N 03:32:12 85° E 03:36:41 10° S
Cosmos 1689 Rocket 3.9 03:31:02 10° SW 03:32:54 15° W 03:34:45 10° NW
Cosmos 2082 Rocket 2.3 03:27:36 10° SSW 03:33:13 88° WNW 03:38:54 10° NNE
Cosmos 2150 Rocket 4.3 03:30:36 10° SW 03:35:39 53° WNW 03:40:43 10° NNE
SL-16 R/B 4.2 03:32:35 10° NNW 03:37:47 35° NE 03:42:57 10° ESE
